FW1299 Weather Reports


Display with metric or nautical units.
time (UTC)temp
F
wind
direction
speed
MPH
gust
MPH
rain 1hr
in
rain 24hr
in
rain mn
in
humidity
%
barometer
mb
20260509160528 67 30 2.0 9.0 0.00 0.00 0.00 70 1011.1
20260509154523 65 285 2.0 8.0 0.00 0.00 0.00 73 1011.6
20260509153525 65 169 1.0 4.0 0.00 0.00 0.00 73 1011.7
20260509152523 64 252 0.0 1.0 0.00 0.00 0.00 76 1011.8
20260509151522 64 240 1.0 4.0 0.00 0.00 0.00 77 1011.8
20260509150524 64 247 1.0 4.0 0.00 0.00 0.00 77 1011.7
20260509145518 64 208 1.0 4.0 0.00 0.00 0.00 77 1011.8
20260509143520 62 204 1.0 5.0 0.00 0.00 0.00 79 1011.7
20260509142519 62 217 0.0 4.0 0.00 0.00 0.00 80 1011.9
20260509141518 61 131 0.0 1.0 0.00 0.00 0.00 81 1011.9
20260509140519 60 188 0.0 2.0 0.00 0.00 0.00 83 1011.9
20260509135519 60 155 0.0 3.0 0.00 0.00 0.00 82 1011.9
20260509134519 59 257 0.0 2.0 0.00 0.00 0.00 84 1011.9
20260509133519 58 219 0.0 1.0 0.00 0.00 0.00 85 1011.9
20260509132512 58 140 0.0 0.0 0.00 0.00 0.00 85 1011.9
20260509131511 57 140 0.0 2.0 0.00 0.00 0.00 84 1012.0
20260509130511 57 199 0.0 0.0 0.00 0.00 0.00 86 1012.0
20260509125511 56 144 0.0 0.0 0.00 0.00 0.00 87 1012.0
20260509124510 55 184 0.0 1.0 0.00 0.00 0.00 89 1012.0
20260509123510 54 236 0.0 0.0 0.00 0.00 0.00 92 1012.0
20260509122513 53 236 0.0 0.0 0.00 0.00 0.00 95 1012.0
20260509121510 53 236 0.0 0.0 0.00 0.00 0.00 95 1012.2
20260509120514 52 236 0.0 0.0 0.00 0.00 0.00 97 1012.1
20260509115508 52 236 0.0 0.0 0.00 0.00 0.00 97 1012.1
20260509114504 51 236 0.0 0.0 0.00 0.00 0.00 98 1012.3
20260509113505 51 236 0.0 0.0 0.00 0.00 0.00 98 1012.2
20260509112506 50 236 0.0 0.0 0.00 0.00 0.00 98 1012.1
20260509111505 50 236 0.0 0.0 0.00 0.00 0.00 97 1012.3
20260509110505 49 236 0.0 0.0 0.00 0.00 0.00 97 1012.2
20260509105504 49 236 0.0 0.0 0.00 0.00 0.00 97 1012.1
20260509103504 49 236 0.0 0.0 0.00 0.00 0.00 97 1012.2
20260509102501 49 236 0.0 0.0 0.00 0.00 0.00 97 1012.1
20260509101458 49 236 0.0 0.0 0.00 0.00 0.00 97 1012.0
20260509100500 48 236 0.0 0.0 0.00 0.00 0.00 96 1012.0
20260509095459 48 236 0.0 0.0 0.00 0.00 0.00 96 1012.0
20260509094457 48 236 0.0 0.0 0.00 0.00 0.00 96 1012.1
20260509092451 49 236 0.0 0.0 0.00 0.00 0.00 96 1012.0
20260509091450 49 236 0.0 0.0 0.00 0.00 0.00 96 1012.1
20260509084451 48 236 0.0 0.0 0.00 0.00 0.00 96 1012.1
20260509083451 48 236 0.0 0.0 0.00 0.00 0.00 96 1012.0
20260509082451 48 236 0.0 0.0 0.00 0.00 0.00 95 1012.0
20260509080448 48 236 0.0 0.0 0.00 0.00 0.00 95 1012.2
20260509074445 49 236 0.0 0.0 0.00 0.00 0.00 94 1012.3
20260509073446 49 236 0.0 0.0 0.00 0.00 0.00 93 1012.1
20260509072446 50 236 0.0 0.0 0.00 0.00 0.00 92 1012.2
20260509071446 51 236 0.0 0.0 0.00 0.00 0.00 92 1012.0
20260509070444 51 236 0.0 0.0 0.00 0.00 0.00 92 1012.2
20260509065445 51 236 0.0 0.0 0.00 0.00 0.00 92 1012.4
20260509064445 51 236 0.0 0.0 0.00 0.00 0.00 91 1012.5
20260509062438 51 236 0.0 0.0 0.00 0.00 0.00 90 1012.5
20260509061439 51 236 0.0 0.0 0.00 0.00 0.00 90 1012.7
20260509055439 51 236 0.0 0.0 0.00 0.00 0.00 89 1012.9
20260509054438 51 236 0.0 0.0 0.00 0.00 0.00 89 1012.9
20260509053437 51 236 0.0 0.0 0.00 0.00 0.00 88 1012.9
20260509052438 52 236 0.0 0.0 0.00 0.00 0.00 88 1012.9
20260509051439 52 236 0.0 0.0 0.00 0.00 0.00 87 1012.9
20260509050429 52 236 0.0 0.0 0.00 0.00 0.00 87 1013.1
20260509045429 52 236 0.0 0.0 0.00 0.00 0.00 86 1013.3
20260509044428 52 236 0.0 0.0 0.00 0.00 0.00 87 1012.9
20260509043428 52 236 0.0 0.0 0.00 0.00 0.00 86 1012.9
20260509041428 52 233 0.0 2.0 0.00 0.00 0.00 86 1013.0
20260509040429 53 246 0.0 0.0 0.00 0.00 0.00 85 1012.8
20260509035426 53 239 0.0 0.0 0.00 0.00 0.00 84 1012.7
20260509033419 53 239 0.0 0.0 0.00 0.00 0.00 85 1012.9
20260509032421 54 239 0.0 0.0 0.00 0.00 0.00 84 1012.9
20260509030418 54 239 0.0 0.0 0.00 0.00 0.00 83 1012.8
20260509025420 54 239 0.0 0.0 0.00 0.00 0.00 83 1012.8
20260509024415 54 239 0.0 0.0 0.00 0.00 0.00 84 1012.9
20260509022412 54 239 0.0 0.0 0.00 0.00 0.00 84 1013.0
20260509020412 54 285 0.0 0.0 0.00 0.00 0.00 83 1012.8
20260509015413 55 285 0.0 0.0 0.00 0.00 0.00 80 1012.8
20260509014413 55 285 0.0 0.0 0.00 0.00 0.00 79 1012.7
20260509013412 55 285 0.0 0.0 0.00 0.00 0.00 78 1012.8
20260509011414 55 285 0.0 0.0 0.00 0.00 0.00 75 1012.4
20260509005407 56 285 0.0 0.0 0.00 0.00 0.00 74 1011.9
20260509004404 56 285 0.0 0.0 0.00 0.00 0.00 72 1011.7
20260509003404 57 285 0.0 0.0 0.00 0.00 0.00 71 1011.6
20260509002404 57 285 0.0 0.0 0.00 0.00 0.00 68 1011.7
20260509001405 58 285 0.0 0.0 0.00 0.00 0.00 71 1011.6
20260508235405 59 285 0.0 0.0 0.00 0.00 0.00 65 1011.5
20260508234405 59 285 0.0 0.0 0.00 0.00 0.00 63 1011.3
20260508233359 60 285 0.0 0.0 0.00 0.00 0.00 60 1011.3
20260508232358 61 285 0.0 0.0 0.00 0.00 0.00 60 1011.4
20260508231359 61 285 0.0 2.0 0.00 0.00 0.00 60 1011.3
20260508230359 62 232 0.0 3.0 0.00 0.00 0.00 58 1011.3
20260508224357 65 208 0.0 1.0 0.00 0.00 0.00 57 1011.2
20260508223358 63 156 0.0 2.0 0.00 0.00 0.00 60 1011.3
20260508222359 63 155 0.0 1.0 0.00 0.00 0.00 56 1011.3
20260508221359 64 155 0.0 1.0 0.00 0.00 0.00 57 1011.2
20260508220353 65 228 0.0 1.0 0.00 0.00 0.00 53 1011.2
20260508215351 66 115 0.0 1.0 0.00 0.00 0.00 53 1011.4
20260508213351 65 209 0.0 2.0 0.00 0.00 0.00 53 1011.3
20260508212353 66 200 1.0 4.0 0.00 0.00 0.00 51 1011.3
20260508211353 65 221 1.0 5.0 0.00 0.00 0.00 53 1011.4
20260508210353 65 184 1.0 4.0 0.00 0.00 0.00 52 1011.3
20260508205352 65 349 1.0 5.0 0.00 0.00 0.00 55 1011.4
20260508204352 64 272 1.0 8.0 0.00 0.00 0.00 52 1011.5
20260508203351 66 244 0.0 4.0 0.00 0.00 0.00 53 1011.5
20260508202353 63 321 1.0 7.0 0.00 0.00 0.00 57 1011.6
20260508201352 63 202 0.0 1.0 0.00 0.00 0.00 55 1011.7
20260508200352 63 233 1.0 4.0 0.00 0.00 0.00 54 1011.7
20260508195351 63 288 1.0 8.0 0.00 0.00 0.00 52 1011.6
20260508194350 63 295 1.0 7.0 0.00 0.00 0.00 51 1011.6
20260508192349 63 269 2.0 10.0 0.00 0.00 0.00 49 1011.6
20260508191349 62 245 2.0 12.0 0.00 0.00 0.00 47 1011.7
20260508190350 63 224 4.0 10.0 0.00 0.00 0.00 47 1011.5
20260508184349 66 213 1.0 9.0 0.00 0.00 0.00 47 1011.5
20260508183352 63 238 2.0 7.0 0.00 0.00 0.00 48 1011.7
20260508182350 63 271 3.0 9.0 0.00 0.00 0.00 48 1011.8
20260508180349 62 293 2.0 7.0 0.00 0.00 0.00 51 1011.9
20260508175349 62 271 3.0 9.0 0.00 0.00 0.00 52 1012.0
20260508174350 62 195 3.0 10.0 0.00 0.00 0.00 46 1012.2
20260508173347 64 259 4.0 11.0 0.00 0.00 0.00 52 1012.3
20260508172349 64 194 4.0 13.0 0.00 0.00 0.00 51 1012.2
20260508171341 63 221 4.0 15.0 0.00 0.00 0.00 51 1012.4
20260508170340 63 148 4.0 11.0 0.00 0.00 0.00 51 1012.4
20260508165339 63 250 4.0 13.0 0.00 0.00 0.00 53 1012.5
20260508164336 63 264 4.0 11.0 0.00 0.00 0.00 51 1012.6
20260508163335 62 233 4.0 13.0 0.00 0.00 0.00 50 1012.5
20260508162334 62 218 3.0 12.0 0.00 0.00 0.00 49 1012.9
20260508161335 61 285 2.0 6.0 0.00 0.00 0.00 57 1013.0